Regional Weather Roundup
Issued by NWS

Home | Current Version | Previous Version | Graphics & Text | Print | Product List | Glossary On
Versions: 1 2 3 4 5 6 7 8 9 10 11 12 13 14 15 16 17 18 19 20 21 22 23 24 25 26 27 28 29 30 31 32 33 34 35 36 37 38 39 40 41 42 43 44 45 46 47 48 49 50
595
ASUS43 KMPX 210910
RWRMN
WEATHER ROUNDUP FOR MINNESOTA
NATIONAL WEATHER SERVICE TWIN CITIES/CHANHASSEN MN
300 AM CST SUN JAN 21 2018


NOTE: "FAIR" INDICATES FEW OR NO CLOUDS BELOW 12,000 FEET WITH NO
SIGNIFICANT WEATHER AND/OR OBSTRUCTIONS TO VISIBILITY. N/A MEANS
CURRENT SKY AND/OR WEATHER CONDITIONS ARE NOT AVAILABLE.

MNZ060>063-068>070-211000-
   Twin Cities Metro

CITY           SKY/WX    TMP DP  RH WIND       PRES   REMARKS
TWIN CITIES    CLOUDY    34  31  88 CALM      29.96S
ST PAUL        CLOUDY    32  31  96 CALM      29.98R
CRYSTAL        CLOUDY    34  28  79 CALM      29.95R
BLAINE         FAIR      36  30  80 CALM      29.96R
LAKEVILLE        N/A     28  28 100 CALM      29.96S
EDEN PRAIRIE   CLOUDY    35  30  82 CALM      29.95R
SOUTH ST PAUL  CLOUDY    31  31  97 CALM      29.97R
LAKE ELMO      CLOUDY    32  32 100 S3        29.97S
$$
MNZ001>005-007-008-013>017-022>024-027-028-211000-
   Northwest Minnesota

CITY           SKY/WX    TMP DP  RH WIND       PRES   REMARKS
BEMIDJI        FAIR      15  13  92 CALM      29.93S
HALLOCK        CLOUDY    16  12  86 N6        29.98R FOG     WCI   7
ROSEAU         FAIR      19  14  79 CALM      29.96R
WARROAD        MOCLDY    19  16  86 W6        29.96R WCI  11
THIEF RVR FALL FOG       19  18  93 CALM      29.97S VSB 1/2
CROOKSTON      FOG       19  19 100 CALM      29.99R VSB 1/2
FOSSTON        FOG       16  16 100 CALM      29.96S VSB 1/4
DETROIT LAKES  FAIR      23  21  93 CALM      29.95F
MOORHEAD       FAIR      28  25  86 CALM      29.98R
PARK RAPIDS    FAIR      22  17  81 CALM      29.93S
MAHNOMEN       FOG       22  20  95 CALM      29.95S VSB 1
$$
MNZ006-009>011-018-025>026-211000-
   North Central Minnesota

CITY           SKY/WX    TMP DP  RH WIND       PRES   REMARKS
BAUDETTE       FOG       14  12  92 W3        29.92S VSB 1/2
FLAG ISLAND    CLOUDY    21  19  93 W3        29.94R
INTL FALLS     FAIR      20  16  84 CALM      29.92R FOG
WASKISH        FAIR      21  21 100 W6        29.94S WCI  14
BIG FORK       FOG       14  10  85 CALM      29.93S VSB 1/4
LONGVILLE      FAIR      19  18  93 CALM      29.96R
GRAND RAPIDS   FAIR      21  20  96 S3        29.97R
CRANE LAKE     FAIR      16  12  86 CALM      29.95R
ORR            FAIR      21  19  93 CALM      29.91R
COOK           CLOUDY    12  10  92 CALM      29.94R
WALKER         FAIR      24  23  96 CALM      29.95R
$$
MNZ012-019>021-037-211000-
   Northeast Minnesota

CITY           SKY/WX    TMP DP  RH WIND       PRES   REMARKS
DULUTH         FAIR      29  25  85 NW7       29.93R WCI  22
ELY            FAIR      12  12 100 CALM      29.92R FOG
HIBBING        FAIR      12   8  84 CALM      29.94S FOG
EVELETH        FAIR      12   9  85 CALM      29.95S
DULUTH HARBOR  FAIR      30  27  86 SW5       29.97R WCI  25
TWO HARBORS    FAIR      28  25  86 CALM      29.92S
GRAND MARAIS     N/A     30  29  96 CALM      29.95S
G MARAIS ARPRT FAIR      21  18  86 CALM      29.90S
$$
MNZ029>031-032-039>041-046>048-054>057-064-211000-
   West Central Minnesota

CITY           SKY/WX    TMP DP  RH WIND       PRES   REMARKS
FERGUS FALLS   FAIR      30  28  93 N3        29.95S
WHEATON        CLOUDY    34  27  75 NW5       29.98S WCI  30
MORRIS         CLOUDY    34  28  80 N5        29.95R WCI  30
ALEXANDRIA     MOCLDY    32  29  88 N5        29.94F WCI  27
ELBOW LAKE     FAIR      30  28  93 N3        29.96S
WADENA         FAIR      28  28 100 CALM      29.94F
GLENWOOD       FAIR      34  30  86 N3        29.94F
APPLETON       CLOUDY    37  28  70 NW5       29.96S
BENSON         CLOUDY    34  30  86 CALM      29.97S
ORTONVILLE     CLOUDY    36  27  69 NW6       29.96S
MADISON        CLOUDY    39  30  70 NW6       29.96S
WILLMAR        FAIR      36  30  80 CALM      29.97S
$$
MNZ033>034-036-042>043-049>051-058-059-211000-
   Central Minnesota

CITY           SKY/WX    TMP DP  RH WIND       PRES   REMARKS
ST CLOUD       CLOUDY    33  29  85 MISG      29.96R
SAUK CENTRE      N/A     32  28  87 N5        29.94F WCI  27
PAYNESVILLE    CLOUDY    32  31  97 CALM      29.95S
AITKIN         FAIR      23  21  93 CALM      29.95R
PINE RIVER     FAIR      21  19  93 CALM      29.98S
BRAINERD       FAIR      28  25  88 CALM      29.96R
STAPLES        FAIR      25  25 100 CALM      29.95F
LONG PRAIRIE   FAIR      30  28  93 CALM      29.94F
LITTLE FALLS   FAIR      30  25  80 CALM      29.96F
LITCHFIELD     CLOUDY    37  32  81 N3        29.96S
BUFFALO        CLOUDY    36  30  79 N3        29.97R
MAPLE LAKE     CLOUDY    35  32  87 MISG      29.96F
HUTCHINSON     CLOUDY    35  32  88 CALM      29.97S
$$
MNZ037-044-045-052-053-211000-
   East Central Minnesota

CITY           SKY/WX    TMP DP  RH WIND       PRES   REMARKS
PRINCETON      MOCLDY    36  28  75 N7        29.95F
MORA           FAIR      28  27  93 CALM      29.98R
CAMBRIDGE      CLOUDY    36  27  69 N7        29.96R
RUSH CITY      MOCLDY    32  29  87 NW3       29.96R
MOOSE LAKE     FAIR      32  27  80 CALM      29.94S
HINCKLEY       FAIR      28  28 100 NW3       29.96S
CLOQUET        FAIR      28  25  86 W6        29.94R WCI  22
MCGREGOR       FAIR      28  27  93 CALM      29.96R
$$
MNZ071>073-080-081-089-090-097-098-211000-
   Southwest Minnesota

CITY           SKY/WX    TMP DP  RH WIND       PRES   REMARKS
MONTEVIDEO     CLOUDY    36  28  75 N5        29.96S
GRANITE FALLS  CLOUDY    37  32  81 W5        29.98R
CANBY          CLOUDY    37  31  78 NW5       29.97S
MARSHALL       CLOUDY    37  28  70 CALM      29.96S
REDWOOD FALLS  CLOUDY    35  30  82 N5        29.95S WCI  31
OLIVIA         CLOUDY    34  32  93 CALM      29.96S
PIPESTONE      CLOUDY    34  28  80 NE5       29.92S WCI  30
WINDOM         CLOUDY    34  19  55 N9        29.94S WCI  26
WORTHINGTON    CLOUDY    32  28  85 N8        29.92F WCI  25
JACKSON        CLOUDY    30  27  86 NE7       29.92F WCI  23
TRACY          CLOUDY    37  31  77 NW6       29.94F
SLAYTON        CLOUDY    34  29  82 N7        29.94S WCI  28
$$
MNZ065>067-074>077-082>085-091>093-211000-
   South Central Minnesota

CITY           SKY/WX    TMP DP  RH WIND       PRES   REMARKS
MANKATO        FAIR      32  30  92 N8        29.95F WCI  25
NEW ULM        CLOUDY    32  28  86 CALM      29.95S
ST JAMES       CLOUDY    28  27  93 N5        29.95F WCI  23
FAIRMONT       CLOUDY    29  27  92 N7        29.94S WCI  22
GLENCOE        CLOUDY    34  32  93 CALM      29.95S
FARIBAULT      FAIR      25  23  93 CALM      29.96S FOG
OWATONNA       FAIR      27  25  93 CALM      29.94S FOG
WASECA         FAIR      32  30  93 CALM      29.95S
ALBERT LEA     FAIR      28  27  93 N3        29.93S FOG
$$
MNZ078>079-086>088-094>096-211000-
   Southeast Minnesota

CITY           SKY/WX    TMP DP  RH WIND       PRES   REMARKS
ROCHESTER      FAIR      30  30 100 N3        29.93S FOG
RED WING       FAIR      27  25  93 CALM      29.96S FOG
STANTON        CLOUDY    25  23  93 CALM      29.95F
DODGE CENTER   FAIR      28  28 100 N7        29.93S FOG     WCI  21
WINONA         FAIR      25  25 100 CALM      29.94F FOG
AUSTIN         FAIR      27  25  93 CALM      29.93R FOG
PRESTON        FAIR      29  28  94 CALM      29.93S FOG
$$
ABBREVIATIONS USED IN REMARKS
   TC - TEMPERATURES IN CELSIUS
  WCI - WIND CHILL INDEX
   HX - HEAT INDEX
  VSB - VISIBILITY
$$




USA.gov is the U.S. government's official web portal to all federal, state and local government web resources and services.